GEFSNE_500_meanwind_186.txt.gz
Wind_Speed
47 47 48 47 48 48 47 47 47 47 47 47 48 48 49 49 49 49 49 48 48 48 49 50 50 51 51 51 50 50 49 48 48 49 49 49 49 49
49 49 49 50 50 49 48 48 48 48 47 47 48 48 48 49 49 49 49 49 49 49 49 50 50 51 50 51 50 50 49 49 48 48 49 49 49 49
50 50 50 50 49 48 48 48 47 47 48 47 48 48 49 49 49 50 50 50 50 50 50 50 50 50 49 50 50 50 51 50 50 50 49 49 49 49
50 50 49 49 48 48 48 48 47 47 47 47 47 47 48 49 49 50 51 50 50 51 51 51 50 50 50 50 50 50 50 50 51 52 51 50 50 50
50 49 49 48 48 48 47 47 47 47 47 47 47 47 48 49 49 49 49 49 50 50 51 52 52 51 51 51 51 51 50 50 50 50 51 51 51 51
48 48 48 49 49 48 48 47 47 47 47 47 47 47 47 48 48 48 49 49 49 49 50 51 51 51 51 51 51 50 49 49 49 49 49 49 50 50
48 48 49 49 49 48 48 47 47 47 47 47 47 47 47 47 48 48 48 48 48 48 48 49 49 50 50 50 50 50 49 48 48 48 48 48 48 48
48 48 48 48 47 47 47 47 47 47 47 47 47 47 47 47 47 47 47 47 47 47 48 48 49 49 49 49 49 49 49 49 49 49 49 48 48 47
46 47 47 46 46 46 46 46 47 47 46 46 46 46 46 46 46 46 46 46 46 47 47 47 47 48 48 48 48 48 49 50 50 50 50 49 49 49
45 45 45 45 45 45 45 45 45 45 45 45 45 45 45 46 45 45 46 45 46 46 46 46 47 47 47 47 47 48 49 49 50 50 50 51 50 50
44 44 44 44 44 44 43 43 43 43 43 43 43 43 43 43 44 44 44 44 44 44 45 46 46 46 46 46 47 47 48 48 49 49 50 50 50 51
42 42 42 42 43 43 42 41 41 41 42 42 42 42 41 41 42 42 43 43 43 43 43 44 45 46 46 46 46 46 47 47 48 48 48 49 49 49
41 40 41 41 41 40 40 40 40 40 40 40 40 40 40 40 41 41 41 42 42 42 42 42 43 44 45 45 45 46 46 46 46 47 48 48 48 49
39 39 39 39 38 38 38 38 38 38 38 38 38 39 39 39 39 39 40 40 41 40 40 40 41 42 43 43 44 45 46 46 47 47 48 48 48 49
38 38 38 37 37 36 36 36 37 37 37 37 38 37 37 37 37 37 38 38 38 38 38 39 39 40 41 42 42 43 44 45 46 47 48 48 48 48
36 36 36 36 35 34 34 35 35 35 36 36 36 36 36 35 35 35 35 36 36 36 37 37 38 39 40 40 41 42 43 43 44 45 46 47 47 48
35 35 35 34 34 33 33 34 34 35 35 35 34 34 34 34 34 35 35 35 35 35 36 36 37 38 39 39 39 40 41 42 43 43 44 44 46 47
34 34 33 33 33 33 34 34 34 34 34 33 33 33 33 34 34 34 34 34 34 34 35 36 38 38 38 38 39 40 40 41 41 41 42 42 42 43
33 33 32 32 32 33 33 33 33 33 33 33 32 32 32 33 33 33 33 33 34 34 35 36 36 36 37 37 38 39 39 39 39 39 39 39 40 40
31 31 31 31 31 31 32 32 32 32 32 32 31 32 32 32 32 32 32 32 33 33 34 34 35 36 36 36 36 36 37 37 37 37 36 37 37 37
29 29 29 29 29 30 30 30 30 31 31 31 31 32 32 31 31 31 31 31 32 32 33 33 34 34 35 35 34 34 35 35 35 35 34 33 33 34
28 28 28 28 28 28 29 29 29 29 29 30 30 31 31 31 30 30 30 30 31 31 32 32 33 33 33 33 33 33 33 33 33 33 33 32 32 32
28 28 28 28 28 28 28 28 28 28 28 29 30 30 29 29 29 29 29 29 30 30 30 30 30 30 31 31 31 31 31 31 31 30 31 31 31 32

GEFSNE_500_meanwind_192.txt.gz
Wind_Speed
46 46 46 47 48 48 48 49 49 48 47 47 47 47 47 47 47 47 47 47 47 47 48 48 49 49 49 50 50 50 50 51 50 49 48 48 49 49
47 47 48 49 49 49 49 49 49 49 48 47 47 47 48 47 47 47 47 48 48 48 48 48 49 50 50 50 50 50 50 51 51 50 50 48 49 50
49 49 49 50 49 49 49 49 49 49 49 47 47 48 48 48 48 48 48 48 48 48 49 49 49 50 50 49 49 50 50 51 51 50 49 48 48 48
50 50 50 50 50 50 50 50 50 50 50 49 49 49 48 49 49 49 49 49 48 49 49 49 49 49 49 49 49 50 50 50 49 49 49 49 48 49
51 51 51 50 50 50 50 50 50 51 51 51 50 49 49 49 49 49 49 49 48 48 48 49 49 49 50 50 50 50 50 50 50 49 49 49 49 49
51 51 51 51 51 51 50 50 50 50 50 50 49 49 49 49 49 49 48 48 48 48 49 49 49 49 50 50 50 50 50 50 50 51 50 50 49 49
51 51 52 52 51 51 50 50 50 50 50 49 49 49 50 50 49 49 48 48 48 49 49 49 49 49 49 50 50 50 50 51 51 51 51 50 49 49
50 50 51 51 51 51 51 50 50 50 49 49 49 50 50 50 49 49 49 48 48 48 48 48 48 48 48 49 49 49 50 51 51 50 50 50 49 49
50 50 50 50 50 50 49 49 49 50 50 49 49 49 49 49 49 49 48 48 48 47 47 47 47 47 47 47 48 48 48 49 49 49 49 49 49 48
49 49 49 48 48 48 48 48 48 48 48 49 49 49 48 48 49 48 48 47 47 47 47 46 46 46 47 47 47 48 48 47 47 47 48 48 48 48
47 47 47 47 47 47 46 46 46 46 47 48 48 48 48 48 48 47 47 47 46 46 46 46 45 45 45 45 46 46 46 46 46 46 47 47 48 48
47 47 47 47 46 46 46 45 45 45 46 46 46 47 47 47 47 46 46 46 46 45 45 45 45 45 44 43 43 44 44 44 44 45 45 46 47 48
46 45 45 45 45 44 44 44 44 44 43 43 43 44 45 45 44 43 43 44 44 43 43 43 43 43 42 41 41 42 42 42 42 43 44 44 45 46
44 43 43 43 42 43 43 42 42 42 41 41 41 41 42 42 41 41 41 41 41 41 41 41 41 41 40 40 39 40 41 41 41 42 43 43 44 44
42 41 40 40 40 40 40 40 40 40 39 39 39 39 40 40 40 39 39 39 39 39 39 39 39 39 39 39 38 39 39 40 41 41 41 42 42 43
41 40 39 38 38 38 38 38 38 38 38 38 37 37 37 37 38 38 37 37 37 37 38 38 38 38 38 38 38 38 38 39 39 39 40 40 41 42
39 38 37 36 36 37 37 37 37 36 36 36 36 36 35 35 35 35 35 35 36 36 36 37 37 36 36 37 37 37 37 37 38 38 38 38 39 40
38 37 36 35 35 35 35 35 35 35 35 35 34 34 34 34 33 33 33 34 35 35 35 34 34 34 35 35 36 36 36 36 36 37 37 37 37 38
36 36 35 34 34 33 33 33 33 33 33 32 32 32 32 32 32 32 32 32 33 33 33 33 33 33 34 33 34 35 35 34 34 34 35 34 34 34
35 34 33 32 32 32 32 32 32 32 31 30 31 31 31 30 30 30 30 31 31 31 31 32 32 32 32 32 32 33 34 34 34 34 33 33 32 33
33 32 32 31 31 30 30 30 30 29 29 29 30 30 29 29 29 29 29 29 29 29 29 30 30 30 31 31 31 31 32 33 34 34 33 32 32 32
30 30 30 30 29 29 29 28 28 28 28 28 28 28 28 28 28 28 28 27 27 28 28 28 29 29 30 30 30 31 31 31 31 32 32 32 32 31
28 29 29 29 29 28 28 28 27 27 27 27 27 27 27 27 27 27 27 27 27 27 27 28 28 28 28 29 29 29 29 29 29 30 30 31 31 31

GEFSNE_500_meanwind_198.txt.gz
Wind_Speed
45 45 46 47 48 48 49 49 49 49 49 49 49 48 49 49 48 49 49 48 48 48 48 48 48 48 49 49 49 49 49 49 49 49 49 49 49 49
46 47 48 49 49 49 50 50 51 52 51 50 50 50 50 50 50 50 50 50 50 50 50 49 49 49 49 49 50 50 51 51 51 51 51 51 52 51
48 49 50 50 51 51 51 52 52 53 53 52 52 52 52 52 52 52 51 51 51 51 50 50 51 50 50 50 51 51 51 51 51 52 52 52 52 52
49 50 51 51 52 53 53 54 54 54 54 53 52 53 53 53 52 52 52 52 51 51 51 51 51 51 51 51 51 51 51 51 51 52 52 52 52 51
50 51 51 52 53 54 54 54 54 54 55 55 54 54 54 53 53 53 53 53 52 52 53 52 52 52 52 52 52 52 52 52 52 52 52 52 51 51
51 51 52 53 53 54 55 55 55 55 55 55 54 54 54 54 54 53 53 53 53 53 54 53 53 53 53 53 54 54 53 53 52 52 52 52 51 51
52 52 53 54 54 55 55 55 55 55 55 55 55 54 54 54 54 54 54 54 54 54 54 54 54 54 54 54 54 54 54 53 52 52 52 52 52 51
53 53 54 54 54 54 55 55 55 55 54 55 55 55 54 54 54 54 54 54 53 53 54 54 54 54 54 54 53 53 53 52 52 51 51 51 52 51
52 52 52 53 53 54 54 54 54 54 54 54 54 54 53 53 53 53 53 53 52 53 53 53 53 53 53 53 53 52 52 52 51 51 50 50 50 51
52 52 52 52 53 53 53 53 53 53 53 53 53 52 52 52 52 52 51 51 50 51 51 51 51 51 52 52 51 51 50 50 50 49 49 49 48 48
52 53 53 53 53 53 53 52 52 52 52 51 51 51 50 50 50 50 50 49 48 48 49 49 49 50 49 49 48 48 48 48 48 48 48 48 47 47
51 52 52 53 52 53 53 52 51 50 50 49 49 49 48 48 48 49 48 48 48 47 47 48 48 48 47 46 46 46 47 47 46 46 46 47 46 46
50 50 50 51 52 52 52 51 50 49 48 48 47 47 47 47 47 47 46 47 47 46 46 46 45 44 44 44 44 44 44 45 45 44 45 45 45 44
48 48 48 48 49 48 48 47 47 46 46 45 45 45 44 44 44 44 45 44 44 43 43 43 42 42 42 41 41 42 42 43 43 43 43 43 43 43
47 47 47 47 47 46 46 45 44 44 44 43 43 42 42 42 42 42 42 42 41 40 40 40 40 39 39 39 39 39 40 40 41 41 41 42 42 42
46 46 45 45 44 44 43 42 42 42 41 41 40 40 40 40 40 40 39 39 39 38 39 39 38 37 37 38 38 38 39 38 38 39 39 39 40 40
44 44 43 43 42 41 41 41 40 39 38 38 38 37 37 37 37 37 37 36 36 36 36 36 35 35 36 36 36 37 37 36 36 37 37 37 37 38
42 42 41 41 41 40 40 39 38 37 36 36 35 34 34 35 35 34 34 34 33 33 34 34 33 34 34 34 34 34 34 35 35 35 35 35 34 35
41 40 39 39 39 39 38 37 36 35 34 34 33 33 33 33 33 32 32 32 31 32 33 33 32 32 32 31 32 32 32 32 32 33 33 33 33 32
39 39 38 38 37 36 36 35 34 33 32 32 32 32 31 31 31 31 30 30 31 31 32 31 31 30 30 30 29 29 29 29 29 29 30 31 31 31
36 36 36 36 35 34 33 32 32 31 31 31 31 31 30 30 30 29 30 30 30 30 29 29 28 28 28 27 27 26 26 27 27 27 28 29 29 29
34 34 34 34 33 32 31 31 30 30 29 29 30 30 30 30 29 28 28 28 28 28 27 26 26 26 26 26 25 25 24 25 25 26 27 27 27 27
32 32 32 31 31 31 30 29 29 29 28 28 28 28 29 28 27 27 26 26 25 25 24 23 23 24 24 24 24 24 24 24 24 25 25 26 27 27

GEFSNE_500_meanwind_204.txt.gz
Wind_Speed
45 46 46 48 49 49 50 50 50 49 49 48 49 49 50 50 51 51 51 51 51 52 52 52 52 52 52 53 53 52 52 51 51 51 51 50 50 50
47 47 48 49 49 50 51 51 51 51 51 50 51 51 51 52 52 53 53 53 53 53 53 53 53 53 54 54 54 54 53 53 52 52 52 52 51 51
49 49 50 51 51 51 52 52 53 53 53 52 52 53 53 54 54 55 55 55 55 55 55 55 55 55 55 55 55 55 54 54 54 53 53 52 52 52
50 51 51 52 52 52 53 53 54 54 55 55 54 55 55 56 56 57 57 56 56 56 56 56 56 57 57 57 56 55 55 55 55 54 54 54 53 53
51 52 53 53 53 53 54 54 55 55 56 56 56 56 56 57 58 58 57 57 57 57 57 57 57 57 57 57 56 56 55 55 55 55 55 55 54 54
53 53 54 54 54 54 55 55 56 56 56 57 57 57 58 58 58 58 57 58 58 57 57 57 57 57 57 56 56 55 55 55 55 55 55 54 54 54
55 54 55 55 55 55 55 55 55 56 56 57 57 57 57 57 57 58 57 57 57 57 57 56 57 56 56 56 55 55 55 55 55 55 54 54 54 54
55 55 55 54 54 55 55 55 55 56 56 56 56 56 55 56 56 56 56 55 55 54 54 54 55 55 55 54 54 54 54 54 53 54 54 54 54 53
55 55 54 54 54 55 55 55 55 55 55 55 54 54 55 55 55 55 55 54 53 52 52 52 52 52 53 53 53 53 52 52 52 53 53 53 52 51
54 54 54 53 54 54 54 53 53 53 54 54 54 54 54 54 55 55 54 53 51 51 51 50 50 51 51 52 52 51 51 51 51 51 51 50 49 49
53 53 53 53 53 53 53 53 53 53 54 54 54 54 54 53 54 54 53 51 49 49 50 50 49 50 50 50 50 51 50 50 49 49 48 48 47 47
53 53 53 53 53 54 54 54 54 53 54 54 54 53 53 52 51 51 51 50 49 48 48 49 49 49 48 48 49 49 49 49 48 48 47 47 46 46
51 51 52 52 52 53 53 54 53 53 54 53 53 52 51 50 49 50 50 49 49 48 47 48 48 48 48 47 46 46 47 47 47 46 46 45 46 46
50 50 50 51 51 52 52 52 53 53 52 52 51 50 49 48 48 48 48 47 47 46 47 47 46 46 45 45 44 44 44 45 45 45 45 44 45 45
49 49 49 49 50 50 50 50 51 50 49 47 47 46 46 46 47 46 46 46 45 45 45 45 44 43 43 42 41 42 43 43 43 44 44 44 44 44
48 47 47 47 47 47 48 48 48 47 46 45 44 44 45 45 45 45 44 43 42 42 42 41 41 41 40 40 40 40 41 41 41 42 42 42 42 42
46 45 45 45 45 45 45 45 45 45 44 43 43 43 44 43 43 42 41 41 41 40 39 39 39 38 38 38 38 38 38 39 39 39 38 38 38 38
44 43 43 42 42 42 42 42 42 41 41 41 41 41 40 40 39 38 39 39 38 38 38 37 36 36 36 36 36 35 34 35 35 34 34 34 34 34
42 41 40 39 39 39 39 39 39 39 39 39 39 38 37 37 36 36 36 36 36 35 35 35 34 34 34 33 33 32 32 31 31 30 30 30 30 31
39 38 37 37 37 37 36 36 36 37 37 36 36 36 35 34 34 34 34 34 33 33 33 32 33 33 33 32 31 30 30 29 28 28 28 28 28 28
37 36 35 35 35 35 34 34 34 34 35 35 34 34 33 33 33 33 32 32 32 31 31 31 31 32 31 30 28 27 27 28 28 26 25 25 25 25
35 34 34 34 34 34 33 33 33 33 33 33 33 32 31 31 31 31 31 30 30 30 30 30 30 30 28 27 26 25 25 25 25 24 24 24 23 23
33 33 33 33 33 33 32 32 32 32 31 31 30 30 29 29 29 29 29 29 28 28 28 28 27 27 25 24 24 24 23 23 22 21 21 22 22 22

GEFSNE_500_meanwind_210.txt.gz
Wind_Speed
42 44 44 45 47 47 48 48 48 48 48 48 49 51 51 51 51 52 52 52 53 53 53 53 53 54 54 55 55 55 54 54 54 54 54 53 54 54
43 45 46 47 48 49 50 50 51 51 51 50 51 51 53 53 54 54 54 54 55 55 55 55 56 56 57 57 57 57 56 56 56 56 55 54 54 53
46 46 47 49 50 51 52 53 53 54 54 54 54 53 54 54 55 56 56 57 57 58 58 58 58 58 58 58 58 58 57 57 57 57 57 56 55 55
48 49 49 51 52 52 53 53 54 55 55 55 56 56 56 56 56 57 58 58 59 59 59 58 58 58 58 58 58 58 58 58 58 58 57 57 57 56
50 51 52 52 53 54 53 54 55 55 55 55 56 57 57 57 58 58 58 58 58 58 59 58 58 58 58 58 58 57 57 58 58 57 57 56 56 56
52 52 53 53 54 55 55 55 55 56 55 55 56 57 57 56 57 57 57 57 57 58 58 57 57 57 57 57 57 56 56 56 56 56 56 55 55 55
54 54 54 54 55 56 56 56 56 56 56 56 55 56 55 56 56 57 57 57 56 56 56 56 56 56 56 56 55 55 55 55 54 54 54 54 54 54
55 55 55 55 56 56 56 56 56 57 56 56 55 55 55 56 56 56 57 56 55 55 55 55 55 55 54 54 54 54 54 53 53 53 52 52 53 53
55 56 56 56 57 57 57 57 57 57 57 57 56 56 56 56 55 56 56 55 54 54 54 53 53 53 53 53 53 53 53 53 53 52 52 52 52 53
56 57 57 57 57 57 57 57 56 56 56 57 57 56 55 55 55 55 55 54 54 53 53 52 52 52 52 52 52 52 52 52 52 52 52 52 52 52
57 57 57 57 57 57 56 56 56 56 57 57 57 56 55 55 55 55 54 54 53 52 51 51 51 51 51 51 51 51 51 51 51 51 51 51 52 52
57 56 56 56 56 55 55 55 55 55 55 55 55 55 55 55 54 55 54 53 52 51 50 51 51 51 51 51 51 51 52 51 51 51 51 51 51 51
55 54 54 54 54 54 54 54 54 54 54 54 54 53 53 53 53 53 52 52 51 50 50 51 51 51 51 51 51 52 52 51 50 50 50 49 49 49
52 52 52 52 52 52 52 53 53 53 53 53 52 52 52 52 52 51 51 51 50 50 49 49 49 49 49 49 49 50 50 49 48 48 48 48 47 47
50 50 50 51 51 51 51 52 52 52 51 51 50 50 50 50 50 49 49 49 48 48 47 47 47 47 48 47 47 46 46 46 46 47 46 46 46 46
48 48 49 49 48 48 48 48 49 49 48 48 48 47 47 47 47 47 46 46 45 45 45 45 45 45 44 44 43 43 43 43 44 44 43 43 43 43
47 47 46 46 45 45 46 46 46 46 46 45 45 44 44 44 44 44 44 43 42 42 42 42 42 42 41 41 40 40 40 40 40 40 40 40 41 41
45 44 44 44 44 44 44 44 44 44 44 43 43 43 42 42 42 42 42 41 40 40 39 39 39 39 39 38 38 38 37 37 37 37 38 38 37 37
44 43 43 43 43 43 42 42 41 41 41 41 40 40 39 39 39 39 39 39 39 38 38 37 37 37 36 36 35 36 35 35 35 35 35 35 34 33
42 42 42 41 41 40 39 39 38 38 38 38 37 37 36 36 36 36 37 37 37 37 37 37 36 35 34 33 33 33 34 34 34 33 33 32 31 30
40 40 39 39 38 37 37 36 36 36 35 35 35 35 35 35 35 35 35 35 35 35 34 34 34 33 32 32 31 31 32 32 32 31 31 29 28 27
37 37 37 36 35 35 34 34 34 33 33 34 33 33 34 34 33 33 33 33 33 33 32 32 31 31 30 30 30 30 30 29 29 29 28 27 26 25
36 35 35 34 33 33 32 32 32 32 32 32 32 32 33 32 32 32 32 31 31 30 30 29 28 28 28 28 28 28 28 27 26 26 26 26 25 24

GEFSNE_500_meanwind_216.txt.gz
Wind_Speed
43 44 45 44 44 45 46 46 45 45 47 48 49 50 49 50 50 50 51 51 51 51 52 52 52 52 53 53 53 53 53 53 53 53 52 52 52 52
45 45 46 46 46 46 47 47 48 49 49 50 52 52 52 52 53 53 54 53 53 54 55 55 54 54 55 55 55 55 55 54 54 54 54 54 53 53
47 47 47 48 48 48 49 49 50 51 52 51 53 54 54 54 54 55 55 55 55 55 56 56 57 57 57 57 57 56 56 55 55 54 54 54 54 54
48 49 49 49 49 50 50 51 52 53 53 53 54 55 54 54 54 55 56 55 56 56 55 56 57 57 58 58 57 57 56 55 55 55 55 54 54 54
49 50 51 50 50 51 52 53 54 55 55 54 54 54 54 54 54 55 55 55 55 56 55 55 56 57 57 57 56 56 55 55 55 55 55 54 54 55
51 51 52 53 54 54 55 55 55 55 54 54 54 53 54 54 55 55 55 55 55 55 55 55 56 56 56 56 56 55 54 54 54 55 55 55 55 54
53 53 54 55 55 56 56 55 55 55 54 54 54 54 55 55 56 56 56 55 55 54 55 55 56 55 55 55 55 54 54 53 54 54 54 54 53 53
54 55 55 55 55 56 56 55 55 55 55 55 55 55 55 56 56 57 56 55 55 54 56 55 55 55 54 54 54 53 53 53 52 52 52 52 51 51
54 55 55 55 56 56 56 56 56 56 57 57 56 56 56 57 57 57 57 56 55 54 55 54 55 54 54 53 53 53 53 52 51 51 51 50 50 49
54 54 55 55 55 56 56 57 57 57 58 57 57 56 56 56 56 56 56 57 55 54 56 55 54 53 52 52 53 52 52 52 51 50 50 50 50 50
55 55 55 55 55 56 57 57 57 57 57 57 57 57 56 55 56 56 56 56 54 53 53 54 52 51 51 51 51 51 50 50 50 50 50 50 50 50
55 55 55 55 55 56 56 56 56 55 55 55 55 56 56 55 55 55 55 55 54 52 51 52 51 50 49 49 49 49 49 49 49 49 49 49 49 49
54 55 55 56 56 56 55 55 55 54 54 54 53 53 54 54 54 54 54 53 53 52 51 51 50 49 48 47 48 48 48 48 48 48 49 48 48 48
54 54 54 55 55 54 54 54 53 53 52 51 51 51 51 52 52 52 52 52 52 52 51 50 50 49 48 47 46 46 47 47 47 47 47 47 47 47
54 54 54 53 53 53 52 52 51 51 50 49 49 49 49 50 50 49 49 49 49 49 49 49 49 48 47 46 45 44 45 45 46 46 46 46 45 45
52 52 51 51 51 51 49 49 49 49 48 48 48 48 48 48 48 47 46 46 46 46 46 46 46 45 44 43 43 43 43 42 43 43 43 42 42 42
50 49 49 48 48 47 47 47 47 47 47 48 47 47 47 47 46 45 45 45 44 44 43 43 43 43 42 42 41 41 40 40 40 40 40 39 40 40
48 47 47 46 45 45 45 45 46 46 46 46 46 46 46 45 44 44 44 43 43 42 41 41 41 40 40 39 39 39 38 38 37 38 38 37 37 37
46 45 44 43 43 43 43 43 43 44 44 44 45 44 44 43 42 42 41 41 40 39 38 38 38 38 37 36 36 37 37 36 36 36 36 36 35 36
43 42 41 41 41 41 41 41 41 42 42 42 42 42 41 40 40 39 39 38 37 36 35 35 35 36 35 35 34 34 35 35 35 34 34 34 34 34
40 40 40 40 40 39 39 39 40 40 40 40 40 39 39 38 37 36 36 35 34 33 33 33 33 34 33 33 31 31 32 32 32 31 31 31 31 30
39 39 39 38 38 37 37 37 37 37 37 37 37 37 36 35 35 34 33 33 32 32 31 31 31 31 31 30 29 29 29 29 29 29 29 28 28 27
37 36 35 35 34 34 34 34 34 34 35 35 34 33 33 32 31 31 31 31 30 30 30 30 29 29 29 28 27 27 27 27 27 27 27 26 26 26

GEFSNE_500_meanwind_222.txt.gz
Wind_Speed
42 42 41 41 42 43 44 44 44 44 45 46 47 47 47 47 48 49 50 51 51 51 51 52 53 54 54 54 55 55 55 55 54 54 54 53 52 52
44 44 43 44 46 46 46 46 46 46 46 47 48 49 50 49 50 51 52 53 54 54 54 54 54 55 55 56 56 55 55 54 54 55 54 54 53 53
45 46 45 46 47 48 48 48 49 49 49 49 49 50 51 51 52 53 53 54 55 55 55 55 55 55 56 56 57 56 56 55 55 55 55 55 55 54
47 48 47 48 49 50 50 50 50 51 51 51 51 52 53 54 55 55 54 54 55 54 55 55 55 56 56 56 56 56 56 56 57 56 57 57 56 55
49 49 49 50 50 52 52 52 53 53 53 53 53 53 54 55 55 55 54 54 54 55 55 55 55 56 55 55 55 56 56 56 56 56 57 57 56 56
50 51 51 52 53 54 54 54 54 54 54 55 54 54 54 55 55 55 54 54 55 54 55 55 55 55 55 55 55 55 55 55 55 56 56 56 56 56
53 53 53 54 55 55 55 55 55 55 55 55 55 54 54 55 55 56 56 55 54 55 55 56 56 56 56 55 55 55 55 55 55 55 55 55 56 55
54 55 54 55 55 55 55 55 56 56 56 56 56 55 55 56 56 56 56 55 54 54 55 55 56 55 56 56 55 55 55 55 55 55 55 55 55 55
54 55 54 55 55 55 55 55 56 56 56 57 56 56 56 56 56 55 55 55 54 54 54 54 55 55 55 55 56 55 54 54 55 54 54 53 53 53
54 55 55 56 55 56 56 55 55 55 56 56 56 56 56 56 56 56 56 55 54 54 55 54 54 54 54 55 55 55 54 53 53 53 52 51 51 51
54 55 56 56 56 56 56 56 56 55 55 55 55 55 55 56 56 56 56 56 54 54 55 55 54 54 54 53 53 53 53 53 52 52 52 51 50 50
54 54 54 54 54 55 55 55 55 54 54 54 54 54 55 55 55 56 56 56 56 54 54 54 53 53 51 51 52 51 51 51 51 51 50 50 50 50
53 53 54 54 54 55 55 55 54 54 54 54 54 54 55 55 55 56 56 56 55 54 53 53 52 52 51 50 50 50 50 50 50 49 49 50 50 49
52 52 53 54 54 54 55 55 55 55 55 54 54 54 55 54 54 55 55 54 53 52 51 51 50 50 50 49 49 48 48 48 48 48 49 48 48 48
51 52 52 53 53 53 53 54 54 54 54 54 53 53 53 53 53 53 52 51 50 50 49 49 48 48 48 48 47 47 47 46 46 46 46 46 47 47
50 51 51 51 52 52 52 52 53 53 53 52 51 51 50 50 50 49 49 48 48 47 47 47 47 47 47 46 46 45 45 44 44 44 44 44 44 44
50 50 50 50 51 51 51 51 50 49 49 48 48 47 47 47 47 47 47 46 45 44 44 45 46 46 45 45 44 44 44 43 43 43 42 41 41 41
49 49 48 48 47 47 47 47 47 46 45 45 45 45 44 45 45 44 44 43 43 43 43 43 44 44 44 42 42 42 42 42 41 40 39 38 38 39
47 46 46 45 45 45 45 44 44 43 42 42 42 42 42 42 42 41 42 42 42 41 41 42 42 42 41 40 39 40 39 38 37 37 37 37 36 35
45 44 44 44 44 43 42 42 41 40 40 40 40 40 40 40 40 40 40 40 40 40 39 39 40 40 38 37 35 35 36 35 35 35 35 34 34 34
42 42 42 42 41 40 39 39 38 37 37 38 38 38 38 38 38 38 39 39 38 38 37 37 37 36 35 34 33 32 34 34 33 32 32 32 31 32
40 40 39 39 38 38 37 37 36 36 36 36 36 36 36 36 37 37 36 36 35 34 33 33 33 33 32 32 31 31 31 31 30 30 29 29 29 29
39 39 38 37 37 36 36 35 35 35 35 35 35 35 34 34 34 34 33 32 31 31 31 31 32 32 31 30 29 28 28 28 28 28 27 27 26 26

GEFSNE_500_meanwind_228.txt.gz
Wind_Speed
39 39 39 41 42 42 42 43 43 43 43 44 45 45 46 46 47 47 48 49 50 50 51 51 52 52 53 54 54 55 56 55 55 56 56 55 54 54
41 41 41 42 43 43 44 44 44 45 45 46 47 48 48 48 49 49 50 50 51 52 53 53 54 54 54 55 56 56 57 57 57 57 57 56 56 55
42 43 43 43 44 44 45 45 45 46 47 47 48 50 50 50 51 51 52 53 53 54 54 54 55 55 55 57 57 57 57 57 56 56 56 56 55 55
44 44 44 45 45 45 46 47 47 48 49 49 50 51 52 53 53 53 53 54 54 56 56 56 56 56 56 56 56 56 56 55 55 55 55 55 55 55
45 45 45 46 46 47 48 49 49 50 51 51 51 52 53 54 54 54 54 55 55 56 57 56 56 57 56 56 56 55 55 55 55 55 55 55 55 55
45 46 46 47 47 48 48 50 51 51 52 53 53 54 55 56 56 56 56 56 56 56 56 56 56 56 56 57 56 55 54 54 54 54 54 55 55 55
47 47 48 48 49 49 50 52 53 53 54 55 55 56 57 57 57 57 57 57 56 55 55 55 55 56 56 56 54 53 53 53 53 53 53 54 54 54
47 48 49 49 50 50 51 52 53 55 56 56 57 57 57 57 58 58 58 57 56 55 55 55 55 55 55 54 52 52 53 53 53 53 54 54 54 54
47 48 49 50 51 51 52 53 54 55 56 57 57 56 56 57 57 57 57 57 56 55 56 55 54 54 53 52 52 53 53 53 53 53 54 54 54 54
48 49 50 50 51 52 53 53 54 54 55 56 56 56 56 57 57 57 56 56 55 55 56 54 53 53 52 52 52 53 53 53 53 54 54 54 54 54
49 49 50 51 52 52 52 52 54 54 55 55 56 56 56 56 57 57 57 56 55 54 54 54 53 53 52 51 52 52 53 53 53 52 53 53 53 54
48 49 50 51 52 52 52 53 54 54 54 54 54 55 55 55 56 56 56 56 55 54 54 54 54 54 52 51 51 51 51 51 51 51 51 51 51 52
49 50 51 51 51 51 52 53 53 54 54 54 54 54 53 53 54 54 55 55 54 53 53 53 53 54 53 51 49 49 49 50 49 49 49 49 49 49
49 50 50 50 49 50 51 52 52 52 52 52 52 52 52 52 52 52 53 53 53 52 52 53 53 53 52 51 48 47 47 47 47 47 47 47 47 47
49 49 49 48 49 49 50 50 51 51 51 51 50 50 50 50 50 50 49 49 50 50 51 51 52 51 50 49 47 46 46 46 46 47 46 46 46 46
47 46 47 47 48 48 49 50 50 50 50 50 49 48 48 47 47 47 47 48 48 48 48 49 49 49 47 46 46 46 46 46 45 45 45 44 44 44
46 47 47 47 47 48 49 48 49 49 49 48 48 47 46 46 45 45 46 46 46 46 46 46 46 46 45 45 45 45 45 45 45 44 43 42 42 42
46 45 46 47 48 48 48 47 47 47 46 45 45 45 44 44 44 45 45 45 44 44 44 43 43 43 43 43 43 44 43 42 42 41 41 39 39 40
45 45 46 47 47 47 47 47 46 45 45 45 44 44 43 43 43 44 43 43 43 42 42 42 41 42 41 40 39 40 41 40 39 38 38 38 37 37
46 46 47 48 47 47 46 45 44 44 43 43 43 43 43 42 42 42 41 41 40 40 39 39 39 40 39 38 37 38 39 39 38 36 35 35 35 34
46 47 47 46 46 45 44 43 42 42 42 42 42 42 41 41 40 40 39 39 38 38 38 38 38 39 38 38 36 36 36 37 36 34 33 33 32 32
46 45 44 44 43 43 42 42 41 41 42 41 41 40 40 40 39 39 38 38 37 38 37 37 37 38 37 37 36 34 33 33 33 32 32 31 31 30
44 43 43 42 42 41 41 41 41 41 40 40 40 40 40 39 39 38 38 37 37 38 37 37 37 36 36 35 33 32 31 30 30 29 29 29 28 28

GEFSNE_500_meanwind_234.txt.gz
Wind_Speed
40 41 41 40 38 38 38 39 39 40 40 41 41 42 43 43 44 45 46 46 47 48 49 50 51 52 53 53 53 54 54 54 54 54 54 54 53 54
40 41 41 42 40 39 40 40 41 42 42 43 43 44 45 46 46 47 48 49 49 50 51 52 53 54 54 55 55 55 56 56 56 55 55 55 55 56
42 42 43 43 42 42 42 42 43 44 44 45 45 46 48 48 48 49 50 50 52 53 53 54 55 55 56 56 56 57 57 57 57 56 56 56 55 55
44 45 45 44 44 44 43 43 44 45 46 47 47 47 49 50 51 51 51 52 54 55 55 56 57 57 57 58 58 58 57 56 56 55 55 55 55 54
45 46 45 45 45 44 45 45 45 46 47 47 48 49 49 50 51 52 53 54 55 55 55 56 57 58 58 58 58 58 57 56 55 54 54 54 54 53
45 45 45 46 46 45 45 45 46 46 47 48 49 50 50 50 51 52 53 54 55 55 56 56 57 57 58 57 57 56 56 55 55 55 55 54 54 54
46 46 46 46 46 46 46 46 46 47 48 49 50 50 51 51 52 53 53 54 55 56 56 56 57 57 56 56 55 54 54 54 55 55 55 55 55 55
46 46 47 47 47 47 47 47 48 49 49 50 51 51 52 53 53 54 55 55 56 55 56 56 56 55 55 55 54 54 54 54 54 54 54 54 55 55
46 46 46 47 48 47 48 49 49 50 50 51 52 52 52 53 55 55 55 56 55 56 56 54 54 54 54 53 54 53 54 54 54 54 54 54 54 54
47 47 47 48 49 49 48 49 49 50 51 52 52 53 53 54 55 55 55 55 55 54 55 53 52 53 53 54 54 54 54 54 54 54 55 55 55 54
48 48 48 48 49 49 49 50 50 51 52 53 53 53 54 55 56 56 56 56 54 53 53 53 52 53 53 52 53 54 54 54 54 54 54 54 53 52
47 48 48 49 49 49 50 51 51 52 53 53 54 54 55 55 56 56 56 55 54 52 52 53 53 53 52 51 52 52 53 53 52 52 52 51 50 49
47 47 49 49 50 51 51 51 52 53 53 54 54 55 55 55 55 54 54 53 52 51 52 51 51 51 51 50 50 50 51 51 50 50 50 49 48 47
46 47 48 49 50 50 51 52 52 53 54 54 54 53 53 52 52 52 51 51 50 50 50 50 50 50 50 49 49 48 48 49 48 48 48 46 45 45
44 45 46 47 48 49 50 50 51 52 53 54 53 52 51 51 50 49 49 49 49 49 48 48 49 49 49 49 48 47 47 46 46 46 45 43 43 43
44 44 46 46 47 47 48 49 50 51 52 52 51 49 48 48 48 48 48 48 48 47 48 48 48 48 48 47 47 46 46 45 44 43 43 42 42 43
44 44 45 45 46 46 47 47 48 49 49 49 48 47 47 47 47 47 47 47 47 47 47 48 48 48 47 46 46 45 44 44 43 42 41 41 42 43
44 44 44 45 46 46 47 47 48 48 48 47 47 47 47 46 46 46 47 47 47 46 47 47 46 46 45 44 44 44 43 43 42 42 42 41 41 42
43 44 45 46 46 47 47 47 47 47 46 46 46 47 46 45 45 45 45 46 45 45 44 44 44 43 43 42 42 43 41 40 41 41 41 40 40 39
43 44 45 45 45 46 47 47 46 46 46 45 45 45 44 44 44 44 44 44 43 43 43 42 42 42 41 41 40 39 40 40 40 40 39 38 37 37
43 44 45 45 45 46 47 47 46 45 45 44 43 43 43 43 43 43 43 42 42 42 41 40 40 40 39 39 38 37 37 38 38 37 36 36 35 35
43 44 44 45 45 45 45 45 45 44 43 43 43 43 43 43 42 42 42 41 41 40 39 39 39 38 38 37 37 36 36 37 36 36 36 35 34 33
42 43 43 44 44 44 44 44 43 43 42 42 42 42 42 42 42 41 41 40 39 38 38 37 37 37 37 37 37 37 36 36 35 35 35 34 33 31

GEFSNE_500_meanwind_240.txt.gz
Wind_Speed
41 42 41 40 40 40 41 41 41 40 39 40 40 40 40 41 40 40 41 41 42 43 44 45 45 47 48 49 50 51 52 53 53 54 54 53 54 54
42 42 42 42 41 42 42 41 41 40 40 40 41 41 41 41 41 42 42 43 44 44 45 46 48 49 50 51 52 53 54 55 55 54 54 54 54 54
42 42 42 41 41 41 42 42 42 41 41 42 42 42 42 42 42 42 43 44 45 45 46 47 49 51 52 54 54 54 55 55 55 54 54 54 54 53
42 43 43 43 42 42 42 42 42 42 42 42 42 43 43 43 43 44 45 46 47 48 49 49 50 52 53 53 54 54 55 55 55 55 54 53 53 52
43 43 43 43 43 42 42 42 43 43 43 42 43 43 43 44 45 46 46 48 49 50 50 50 50 51 52 53 53 54 54 54 54 54 53 53 53 53
43 43 43 43 43 43 43 43 43 44 44 45 45 44 45 45 46 47 47 48 49 50 50 51 51 51 51 52 52 53 53 53 53 52 53 53 54 54
43 43 42 43 44 43 43 44 45 45 45 46 46 46 46 46 47 48 48 48 48 49 50 50 50 50 51 51 51 51 52 52 52 53 53 54 54 55
44 44 44 44 44 44 44 45 45 46 46 46 47 47 48 48 48 49 49 49 49 50 50 50 50 50 51 51 51 51 51 51 52 53 54 55 55 55
44 44 44 44 44 45 46 46 46 47 47 47 47 47 48 48 49 49 49 50 50 50 50 50 50 50 51 51 52 52 52 53 53 54 54 54 55 55
45 45 45 45 46 46 46 46 46 47 48 48 48 48 48 49 49 50 51 51 50 50 50 50 50 51 51 51 52 52 53 54 55 55 54 54 54 54
45 46 46 46 46 46 46 46 46 47 48 48 48 49 50 50 50 50 50 50 50 50 51 52 51 51 51 51 52 53 54 54 54 54 54 53 53 51
45 46 47 46 46 46 46 46 46 46 47 48 48 48 49 49 49 50 51 51 51 51 52 52 52 52 51 51 52 52 53 52 52 52 52 51 50 50
45 45 45 46 45 45 45 45 46 47 47 48 48 48 48 49 50 51 51 52 53 53 53 52 52 52 52 51 50 50 50 50 49 49 50 49 49 48
43 43 43 43 44 44 44 45 45 46 46 47 47 48 48 49 50 51 51 52 52 52 52 52 51 51 51 49 47 47 48 48 48 48 47 47 47 47
41 41 41 42 42 43 43 44 45 45 46 46 47 48 49 50 51 51 51 50 50 50 50 50 50 50 49 48 47 47 48 47 47 47 47 46 45 45
40 40 40 41 41 42 43 44 44 45 46 47 47 48 49 50 50 50 49 49 48 48 49 49 49 48 48 47 48 48 48 48 47 46 46 45 44 44
40 40 40 41 42 42 44 44 44 45 46 47 48 48 48 49 49 49 48 48 47 48 48 48 48 48 48 48 48 49 48 47 47 46 44 43 43 43
39 40 40 41 42 43 44 44 45 45 46 47 48 48 48 48 48 48 48 48 48 48 48 48 48 48 48 49 49 49 47 46 45 45 44 43 42 42
39 40 41 41 42 43 43 44 44 45 45 46 46 47 47 47 47 47 47 48 48 48 48 48 48 48 48 48 47 48 46 45 44 43 43 43 42 41
40 40 40 41 41 42 42 43 43 43 44 45 46 46 47 47 46 46 46 46 46 46 46 47 48 48 47 46 45 45 45 44 43 42 42 41 40 40
39 40 40 40 40 40 41 41 42 43 44 45 45 45 45 45 44 44 44 44 45 45 45 45 45 45 45 44 43 42 42 42 42 41 40 39 38 37
39 40 40 40 41 41 42 42 43 43 43 44 45 45 44 44 43 43 43 44 44 44 44 44 43 43 42 42 41 40 39 39 39 39 39 38 36 35
40 40 42 42 42 43 43 43 43 43 44 44 44 44 43 42 42 43 43 43 43 43 43 42 41 41 41 40 39 38 37 37 37 37 37 37 37 36

GEFSNE_500_meanwind_246.txt.gz
Wind_Speed
39 39 39 40 42 41 41 41 41 41 41 42 42 42 42 43 43 42 42 42 42 42 42 42 42 42 43 44 45 45 46 47 48 49 49 50 51 51
40 40 40 41 42 43 43 42 43 44 44 43 42 42 42 42 42 42 42 42 43 42 43 43 43 43 44 44 46 47 47 48 48 49 50 51 51 50
40 40 41 41 42 43 44 43 43 44 44 43 43 43 44 44 44 43 43 44 44 43 43 43 44 45 46 46 47 47 47 48 49 50 50 50 51 51
42 41 41 42 43 43 43 43 43 43 43 43 43 43 44 44 44 44 44 43 44 43 43 44 45 46 47 46 47 47 48 49 49 49 51 51 51 52
42 42 42 42 42 43 44 44 43 43 44 44 44 43 44 43 43 43 43 43 44 44 44 45 46 47 47 47 48 48 49 49 50 51 52 52 53 53
43 42 43 43 43 44 43 43 43 44 44 44 44 44 44 43 43 43 43 44 45 45 45 46 47 48 48 49 49 49 50 50 51 52 52 53 53 53
44 45 44 44 44 44 44 44 44 44 45 45 44 44 44 44 44 44 45 46 46 46 46 47 47 48 48 49 50 50 50 50 51 51 51 51 52 52
44 45 45 45 45 44 44 44 44 43 44 44 44 44 44 44 44 44 45 46 47 47 47 47 48 48 48 49 50 51 51 50 50 50 50 50 51 51
46 46 45 45 45 44 44 44 44 44 44 45 45 45 44 44 45 45 46 47 47 47 47 47 48 48 48 49 50 50 51 50 50 50 50 50 51 52
46 46 46 45 45 44 44 45 45 45 46 46 46 45 45 45 45 45 46 47 47 47 48 47 47 47 48 49 50 51 51 51 51 51 51 51 51 52
43 44 44 45 45 45 45 45 45 45 45 46 46 46 46 46 46 47 48 48 48 48 48 48 48 48 49 50 51 51 51 52 52 51 52 53 53 53
42 42 43 43 44 45 45 45 45 45 46 46 47 47 48 48 48 48 48 48 48 48 49 49 49 50 49 50 51 51 52 52 52 52 53 54 54 54
42 43 43 43 43 44 44 44 44 44 45 46 46 47 48 49 48 48 49 49 49 49 49 50 50 50 51 51 50 51 51 51 52 52 53 53 53 53
43 43 42 42 42 43 43 44 44 44 45 45 46 47 47 47 47 48 48 49 49 50 50 51 51 51 52 51 50 50 51 52 52 52 52 53 53 53
42 42 41 41 42 42 43 44 45 45 45 45 46 46 47 47 48 48 49 49 50 51 51 51 51 51 52 51 50 50 50 51 52 52 52 52 52 52
42 42 42 41 41 41 42 43 44 45 45 45 46 46 47 47 48 48 49 49 50 51 52 52 51 51 51 51 51 51 51 51 52 52 52 52 51 50
41 41 41 42 41 42 42 43 43 44 45 45 46 46 46 47 47 48 48 49 50 50 51 51 51 51 51 51 51 51 51 51 51 50 50 49 48 48
41 42 42 42 42 42 43 43 43 44 45 46 46 46 46 47 47 47 47 48 49 49 50 50 51 51 50 51 50 50 49 49 49 49 49 48 47 47
41 42 42 42 42 42 42 42 42 43 44 45 46 46 46 46 46 46 47 48 48 49 49 49 49 49 48 48 48 49 49 48 48 47 47 46 45 44
41 41 41 42 42 42 42 42 43 43 44 45 45 45 45 45 46 46 47 47 47 47 48 48 48 48 47 47 46 46 48 48 47 46 46 44 43 43
40 41 41 42 42 42 42 43 43 43 44 45 45 46 46 46 46 46 46 46 46 47 47 47 47 47 47 46 45 45 46 47 46 45 44 42 42 42
41 41 41 41 42 42 43 43 44 44 44 45 45 46 47 47 47 47 47 47 47 47 46 45 46 46 46 45 45 44 44 44 44 43 42 42 41 40
41 41 41 42 42 43 43 43 43 44 44 45 45 46 46 47 47 47 47 46 46 45 45 45 45 45 45 45 45 44 43 42 41 40 40 40 39 38

GEFSNE_500_meanwind_252.txt.gz
Wind_Speed
39 38 38 38 38 37 38 38 38 39 39 38 38 39 40 40 40 40 39 39 40 41 41 43 43 43 43 43 43 43 44 44 44 44 44 45 46 46
40 39 39 39 39 39 39 39 40 40 40 39 40 39 40 40 40 40 41 41 41 42 43 43 44 44 44 44 44 45 45 45 46 46 46 47 47 47
41 40 40 39 39 40 40 40 41 41 41 41 41 41 42 42 41 41 41 42 42 43 43 43 44 45 45 45 45 46 46 46 46 46 47 47 48 48
42 41 41 41 41 41 41 42 42 42 42 42 42 42 41 42 42 43 43 43 43 43 44 44 44 45 45 46 46 47 47 47 47 47 48 48 49 49
43 43 43 42 42 42 42 43 43 43 43 43 43 43 42 43 43 44 45 44 44 44 44 44 44 45 46 47 48 48 48 48 48 48 48 49 49 50
43 44 43 44 44 44 44 44 45 45 45 44 44 44 44 44 44 45 46 46 46 45 45 45 45 46 47 48 48 48 48 48 48 48 49 49 50 51
44 45 44 45 45 45 46 46 46 46 46 46 46 45 45 45 45 46 46 46 46 46 46 46 47 47 48 48 48 48 49 49 49 49 50 50 50 51
45 45 45 45 45 46 47 47 47 47 47 47 46 46 45 46 46 46 46 46 46 47 47 47 48 48 49 49 49 49 50 50 50 50 50 50 50 50
46 46 46 46 46 47 46 47 47 47 48 47 47 46 46 47 47 47 47 47 47 47 47 47 48 48 49 49 48 49 49 50 50 50 50 50 50 50
46 46 46 46 46 46 46 46 46 46 47 47 46 47 47 48 48 48 48 49 49 49 48 48 48 48 48 49 49 49 50 50 51 50 50 50 50 51
46 46 46 46 46 45 45 45 45 45 45 45 46 46 47 48 49 50 50 50 50 49 49 49 48 48 49 49 50 50 50 50 50 50 50 50 51 51
45 45 44 44 45 44 44 44 44 44 45 45 46 47 48 49 49 50 50 51 51 50 49 49 49 50 49 49 49 50 51 50 50 50 51 51 52 52
44 43 43 44 44 44 44 44 43 44 44 45 46 46 47 48 49 49 50 50 50 50 50 50 50 50 50 49 49 50 51 51 51 51 51 52 52 52
44 44 44 44 43 43 43 43 44 44 44 45 45 46 46 47 48 48 49 49 50 50 50 50 50 50 50 50 50 50 51 51 51 51 52 52 52 52
45 45 44 44 44 43 43 43 44 44 45 45 46 46 46 47 48 48 48 49 49 49 49 50 50 50 50 51 51 51 50 50 51 51 51 51 51 51
45 45 45 45 44 44 43 44 44 45 45 45 46 46 46 47 47 48 48 49 49 49 49 49 49 50 50 51 51 51 51 51 51 51 50 50 50 50
44 44 44 43 43 44 44 44 44 45 45 45 46 46 46 47 47 48 48 48 48 48 48 48 48 49 50 51 51 51 51 51 51 50 50 49 49 49
42 42 42 42 43 43 44 44 44 45 45 45 45 46 46 47 47 47 47 47 48 48 48 47 47 48 48 50 50 50 50 49 49 49 49 48 47 48
42 42 42 43 43 43 44 45 45 45 46 46 45 46 46 47 47 47 47 47 48 48 48 47 47 47 48 48 49 49 49 49 49 49 49 49 48 48
42 42 42 43 43 44 45 45 45 46 46 46 46 46 46 47 47 47 47 47 48 48 48 48 48 48 49 49 48 48 49 49 49 49 48 48 48 47
43 43 43 43 44 44 44 45 46 46 46 46 46 46 47 47 47 47 47 47 47 47 47 48 48 48 49 49 48 47 48 49 49 48 47 46 45 44
42 43 43 43 43 43 43 44 45 45 46 45 46 46 46 46 46 46 46 46 46 46 46 46 47 47 47 47 47 47 47 47 47 47 46 46 45 43
42 42 42 42 42 42 42 42 43 43 43 43 43 44 44 45 45 45 45 45 44 44 45 45 46 46 46 46 46 46 45 45 45 44 45 45 44 43

GEFSNE_500_meanwind_258.txt.gz
Wind_Speed
42 42 41 41 41 40 39 39 40 40 39 39 39 38 38 38 38 38 38 39 38 38 38 39 39 39 40 41 40 41 42 42 43 43 43 43 43 43
43 43 42 42 43 43 42 42 42 41 41 40 39 39 38 38 38 39 39 39 39 40 40 39 39 41 41 42 42 43 43 44 43 43 44 44 44 44
44 44 44 43 44 44 43 43 43 42 41 41 41 40 39 40 40 41 41 40 40 41 41 41 41 42 42 43 44 44 44 44 44 45 45 45 45 46
45 45 45 45 44 44 44 44 44 43 42 42 42 42 41 42 42 43 42 42 42 42 42 43 42 43 44 45 45 45 45 45 45 46 46 47 48 48
45 45 45 45 44 44 44 45 45 44 43 43 43 43 44 44 44 44 44 44 44 44 44 44 45 45 46 46 46 46 46 46 46 47 48 48 49 49
46 46 45 45 45 45 45 45 45 45 44 44 45 45 45 45 45 45 45 45 45 45 45 46 47 48 47 47 47 47 48 48 48 49 49 49 50 50
46 47 46 46 45 45 45 46 46 46 46 46 46 47 47 46 46 46 46 46 46 46 47 47 48 47 47 48 48 48 49 49 49 50 50 50 51 51
47 47 46 47 46 47 47 46 47 47 47 47 47 48 47 47 47 48 47 47 48 48 49 48 48 48 48 48 48 49 49 50 49 50 50 50 51 51
47 48 47 46 47 46 46 47 47 47 47 48 48 48 48 48 49 49 49 49 49 50 50 49 49 49 49 50 50 50 51 51 50 51 51 51 51 51
48 48 48 48 47 47 47 47 48 48 48 49 49 49 49 50 50 49 49 50 50 50 50 50 50 51 51 51 51 52 52 52 52 52 52 51 51 51
48 48 49 49 48 48 48 47 48 48 48 48 48 48 48 48 48 48 48 48 49 50 51 51 51 51 52 52 53 53 53 53 52 52 52 52 52 51
49 49 50 49 50 49 49 48 48 48 48 48 47 47 47 47 47 47 48 48 49 49 49 50 51 51 52 52 53 53 53 53 53 53 52 52 52 52
49 49 49 48 48 48 48 48 48 48 47 47 47 46 47 47 47 47 48 48 49 49 49 50 51 51 52 52 52 52 52 53 53 52 52 52 52 52
48 48 48 47 46 47 47 47 48 48 47 46 46 46 46 46 46 47 47 48 48 49 49 50 51 51 51 51 51 51 52 52 52 52 52 52 52 52
49 49 48 48 47 47 48 47 47 47 46 46 46 46 46 46 47 47 47 47 48 49 50 50 50 50 50 51 50 51 51 51 51 51 52 52 52 52
48 48 48 48 47 47 47 47 46 46 46 46 46 46 47 47 47 47 48 49 49 49 49 49 50 50 50 51 51 51 51 51 51 51 52 52 52 52
47 48 47 47 47 47 46 47 47 47 47 47 47 47 48 48 48 48 49 49 49 49 49 50 50 51 51 51 51 51 52 52 52 52 52 52 52 52
46 47 47 46 46 46 46 47 47 47 47 48 48 48 48 48 49 49 49 50 50 49 49 50 51 52 52 52 52 52 52 52 52 52 52 52 51 52
45 45 46 46 46 46 47 47 46 47 47 47 47 48 48 48 48 49 49 49 49 49 50 51 51 52 52 52 52 52 52 51 51 51 51 51 51 51
44 44 44 44 45 46 46 46 46 45 46 46 47 47 47 47 48 48 48 48 48 49 49 50 50 51 51 51 51 51 51 51 51 51 50 49 49 49
43 43 43 43 43 44 44 45 45 45 45 45 46 46 46 47 47 47 47 47 47 48 48 49 49 50 50 50 49 49 49 50 50 50 49 47 47 46
43 43 43 43 43 43 44 45 45 45 46 46 46 46 46 45 45 46 46 47 47 47 47 48 48 49 48 48 48 48 48 48 48 48 47 46 45 44
42 42 42 43 43 43 43 44 44 44 44 43 44 44 44 44 45 45 45 45 45 45 45 46 46 46 46 46 47 46 46 46 46 45 45 44 43 42